Date,TemperatureHighF,TemperatureAvgF,TemperatureLowF,DewpointHighF,DewpointAvgF,DewpointLowF,HumidityHigh,HumidityAvg,HumidityLow,PressureMaxIn,PressureMinIn,WindSpeedMaxMPH,WindSpeedAvgMPH,GustSpeedMaxMPH,PrecipitationSumIn
2012-1-1,64.2,43.3,28.2,54.4,36.8,27.4,100,80,52,30.28,30.04,13,1,13,0.00
2012-1-2,39.3,30.4,18.0,28.0,18.6,11.5,90,62,43,30.28,30.08,22,2,22,0.00
2012-1-3,23.4,19.3,16.4,14.0,11.7,9.8,84,72,59,30.53,30.27,18,1,18,0.00
2012-1-4,44.4,28.3,13.4,24.5,15.8,10.7,90,62,35,30.54,30.26,5,0,5,0.00
2012-1-5,51.0,40.0,29.4,31.5,28.6,23.1,83,65,43,30.31,30.21,14,1,14,0.00
2012-1-6,60.0,39.3,26.1,36.3,29.0,22.7,91,70,40,30.28,30.16,9,0,9,0.00
2012-1-7,60.1,43.9,29.5,50.9,39.9,26.1,100,86,71,30.25,30.13,7,0,7,0.03
2012-1-8,50.0,45.1,39.2,50.0,45.1,39.2,100,100,99,30.35,30.23,3,0,3,0.00
2012-1-9,49.1,46.5,44.2,49.1,46.5,44.1,100,100,100,30.33,30.18,4,0,4,0.00
2012-1-10,51.7,48.0,43.5,50.3,47.2,43.5,100,97,90,30.25,30.05,7,0,7,0.00
2012-1-11,53.5,48.0,42.8,53.5,48.0,42.8,100,100,96,30.05,29.57,10,0,10,0.24
2012-1-12,53.9,42.8,33.7,47.9,41.2,33.7,100,95,76,29.78,29.66,10,0,10,0.01
2012-1-13,30.2,25.1,22.0,20.9,18.2,16.1,85,75,68,30.28,29.85,2,0,0,0.00
2012-1-14,39.7,31.2,21.6,31.8,21.8,16.8,86,69,53,30.38,30.24,7,0,7,0.00
2012-1-15,41.7,33.6,25.8,32.7,27.4,23.4,96,79,59,30.65,30.26,13,1,13,0.00
2012-1-16,44.8,35.5,23.8,33.8,28.1,22.7,97,76,53,30.67,30.46,15,1,15,0.00
2012-1-17,58.8,50.1,42.6,53.7,46.5,33.9,100,88,70,30.46,30.01,16,1,16,0.13
2012-1-18,48.1,34.1,28.4,48.1,28.6,23.6,100,80,67,30.25,30.04,22,1,22,0.00
2012-1-19,42.6,31.8,21.6,30.0,25.7,20.5,99,79,58,30.35,30.21,11,0,11,0.00
2012-1-20,55.7,40.4,29.1,45.9,36.9,26.0,100,88,68,30.30,30.17,10,0,10,0.04
2012-1-21,51.6,46.4,41.2,51.6,46.4,41.2,100,100,100,30.22,29.97,7,0,7,0.01
2012-1-22,45.4,41.7,36.9,45.4,41.4,36.8,100,99,94,30.39,30.22,7,1,7,0.00
2012-1-23,48.9,40.2,34.8,48.9,40.2,34.8,100,100,100,30.35,30.12,13,1,13,0.03
2012-1-24,57.2,45.6,37.6,44.4,39.2,33.7,100,81,45,30.40,30.17,9,0,9,0.01
2012-1-25,60.1,47.4,29.3,43.0,38.0,28.8,100,72,50,30.46,30.30,13,0,13,0.00
2012-1-26,61.2,54.8,49.8,58.3,51.3,42.5,100,88,71,30.31,29.75,17,1,17,0.05
2012-1-27,58.7,48.6,35.5,58.0,44.6,33.6,100,86,72,30.16,29.70,15,1,15,0.01
2012-1-28,42.2,31.4,28.0,36.5,30.7,27.9,100,97,81,30.26,30.15,5,0,5,0.00
2012-1-29,47.5,36.0,24.2,24.2,20.7,18.1,81,56,35,30.52,30.40,3,0,3,0.00
2012-1-30,55.7,40.1,24.6,32.6,25.9,19.3,85,59,39,30.59,30.43,7,0,7,0.00
2012-1-31,63.1,44.6,26.7,41.2,32.0,24.3,93,64,41,30.56,30.39,6,0,6,0.00
2012-2-1,56.6,48.6,40.2,51.2,43.2,32.7,100,83,57,30.40,30.19,7,0,7,0.05
2012-2-2,57.7,49.6,42.3,51.4,43.4,35.8,100,81,58,30.45,30.17,15,1,15,0.00
2012-2-3,56.2,42.7,28.6,38.9,33.3,28.0,100,73,42,30.60,30.45,11,0,11,0.00
2012-2-4,57.9,47.1,38.5,54.5,45.6,33.2,100,95,81,30.49,30.16,7,0,7,0.07
2012-2-5,60.7,50.9,43.4,55.4,47.9,40.9,100,90,71,30.27,30.08,15,1,15,0.00
2012-2-6,50.3,42.4,36.1,42.5,38.5,34.2,100,87,69,30.37,30.24,9,0,9,0.00
2012-2-7,53.4,42.0,34.0,36.0,32.9,28.9,95,73,45,30.34,30.24,4,0,8,0.00
2012-2-8,47.4,39.0,31.5,37.9,33.1,28.1,92,79,67,30.34,30.25,6,1,16,0.00
2012-2-9,47.4,36.8,31.0,34.9,30.1,26.3,89,77,60,30.43,30.30,13,1,13,0.00
2012-2-10,47.9,35.7,25.6,37.1,31.2,24.9,99,84,64,30.33,30.04,9,0,9,0.00
2012-2-11,37.4,27.4,16.7,33.6,22.0,7.3,95,80,59,30.35,29.95,21,2,21,0.00
2012-2-12,32.5,22.3,14.1,18.1,12.1,6.0,82,65,53,30.51,30.32,15,2,18,0.00
2012-2-13,46.9,32.6,21.1,26.1,19.8,14.5,78,61,41,30.49,30.25,10,0,10,0.00
2012-2-14,47.6,38.9,29.7,41.5,34.1,23.3,99,84,53,30.24,30.10,2,0,0,0.10
2012-2-15,60.9,45.7,30.8,42.4,36.6,30.7,100,75,43,30.41,30.26,2,0,0,0.00
2012-2-16,56.7,48.1,40.6,52.6,44.4,36.0,100,87,71,30.35,30.12,2,0,0,0.10
2012-2-17,58.9,49.2,43.2,45.0,39.5,33.8,92,71,41,30.26,30.17,3,1,3,0.00
2012-2-18,59.7,47.3,32.4,45.8,39.5,30.8,100,76,53,30.25,30.05,10,0,10,0.01
2012-2-19,47.5,40.8,33.2,45.9,40.4,31.1,100,99,92,30.11,29.80,12,0,12,0.06
2012-2-20,52.4,38.3,29.6,36.6,29.5,25.1,95,73,43,30.43,30.10,13,1,13,0.00
2012-2-21,51.9,39.3,26.9,41.9,33.9,24.5,94,81,65,30.43,30.14,18,1,18,0.00
2012-2-22,64.6,47.5,29.6,50.6,41.4,29.6,100,82,52,30.15,29.71,10,1,10,0.04
2012-2-23,69.5,56.1,42.3,58.5,51.0,42.3,100,85,62,29.82,29.67,11,1,11,0.00
2012-2-24,69.9,55.9,36.4,61.7,48.2,23.9,96,76,47,30.05,29.62,16,1,16,0.02
2012-2-25,47.1,38.0,30.8,26.5,22.4,19.4,73,54,40,30.46,30.04,15,1,15,0.00
2012-2-26,51.1,37.7,24.4,30.5,25.3,20.4,88,62,43,30.60,30.46,13,1,13,0.00
2012-2-27,63.7,46.2,29.4,49.8,37.9,25.2,87,74,59,30.57,30.42,7,0,7,0.00
2012-2-28,63.9,49.0,30.9,48.4,41.1,29.9,100,77,53,30.55,30.38,13,1,13,0.00
2012-2-29,68.8,58.1,51.0,62.5,55.8,48.3,100,93,75,30.39,29.92,14,1,14,0.07
2012-3-1,70.6,59.2,43.0,57.4,46.0,35.8,100,66,35,30.00,29.89,12,1,12,0.00
2012-3-2,59.9,50.7,38.5,59.9,47.8,35.1,100,90,67,30.03,29.78,10,0,10,0.07
2012-3-3,58.8,48.1,42.9,58.8,39.9,26.4,100,76,47,29.92,29.68,17,1,17,0.01
2012-3-4,43.1,37.0,29.5,31.9,25.7,22.0,85,64,51,30.15,29.84,14,1,14,0.00
2012-3-5,42.9,36.8,28.7,34.6,25.9,20.2,86,66,47,30.62,30.02,18,1,18,0.00
2012-3-6,54.4,38.1,22.5,33.2,25.9,19.7,92,64,41,30.76,30.61,15,1,15,0.00
2012-3-7,58.1,47.2,33.1,48.6,40.4,25.5,89,77,67,30.75,30.53,13,1,13,0.00
2012-3-8,64.1,57.0,50.3,56.1,52.2,46.9,100,85,67,30.53,30.19,11,0,11,0.06
2012-3-9,54.1,47.4,41.1,54.1,39.9,30.1,100,77,51,30.47,30.18,18,1,18,0.00
2012-3-10,59.6,45.7,34.8,35.1,29.8,26.0,75,55,36,30.64,30.46,11,1,11,0.00
2012-3-11,61.7,45.0,27.4,40.9,33.9,25.4,94,68,43,30.69,30.53,7,1,15,0.00
2012-3-12,61.0,53.3,49.0,54.0,49.9,40.1,100,89,68,30.56,30.36,12,0,12,0.06
2012-3-13,72.7,59.5,53.1,61.2,56.2,53.1,100,90,60,30.37,30.22,10,0,10,0.02
2012-3-14,77.3,59.5,42.6,57.9,50.8,42.6,100,77,44,30.40,30.27,9,0,9,0.00
2012-3-15,76.5,58.0,43.3,61.9,52.5,42.9,100,84,50,30.40,30.28,5,0,5,0.08
2012-3-16,76.5,59.7,49.8,62.5,55.9,49.8,100,89,55,30.39,30.23,6,0,6,0.13
2012-3-17,73.3,59.5,50.5,61.4,55.7,50.5,100,89,57,30.36,30.26,8,0,8,0.00
2012-3-18,74.2,59.8,49.8,62.5,56.6,49.8,100,91,63,30.43,30.28,5,0,5,0.19
2012-3-19,78.9,63.0,48.3,62.9,56.2,48.3,100,81,52,30.35,30.19,11,0,11,0.00
2012-3-20,80.0,63.2,50.9,65.7,57.5,50.9,100,84,52,30.31,30.18,11,0,11,0.12
2012-3-21,73.5,62.2,52.2,62.9,57.6,52.2,100,86,63,30.37,30.26,15,0,15,0.06
2012-3-22,70.0,61.3,53.3,64.0,58.9,52.8,100,92,77,30.34,30.24,11,0,11,0.00
2012-3-23,68.4,60.8,55.5,65.4,60.1,55.5,100,98,87,30.27,30.03,9,0,9,0.00
2012-3-24,70.1,59.7,49.7,60.7,55.1,47.8,100,86,55,30.03,29.82,13,0,13,0.00
2012-3-25,55.9,50.7,48.1,53.0,48.7,46.9,98,93,84,29.97,29.85,13,1,13,0.00
2012-3-26,57.1,55.7,54.5,52.1,51.7,51.1,89,86,83,30.07,30.01,2,1,0,0.00
2012-3-29,75.9,75.9,75.9,59.1,59.1,59.1,56,56,56,30.01,30.01,1,1,3,0.00
2012-4-14,71.5,65.3,55.9,52.3,49.6,47.0,76,57,49,30.41,30.27,15,1,15,0.00
2012-4-15,77.8,61.5,43.0,62.7,54.1,41.9,99,78,58,30.33,30.21,12,0,12,0.00
2012-4-16,79.5,68.0,58.2,65.1,61.2,56.9,97,80,59,30.27,30.15,7,0,7,0.00
2012-4-17,77.8,63.1,53.8,64.9,58.9,53.8,100,88,60,30.28,30.16,7,0,7,0.00
2012-4-18,54.6,52.4,50.3,54.6,52.3,50.3,100,99,96,30.24,30.16,6,0,6,0.00
2012-4-19,67.3,57.5,50.4,59.7,54.4,50.4,100,90,73,30.20,30.08,10,0,10,0.00
2012-4-20,68.4,59.9,54.4,59.3,56.1,54.1,100,88,68,30.13,29.94,10,0,10,0.00
2012-4-21,68.5,59.9,52.7,61.6,57.5,52.6,100,92,75,29.98,29.79,5,0,5,0.00
2012-4-22,59.7,50.8,39.1,53.4,47.3,35.2,100,88,69,29.84,29.63,21,1,21,0.00
2012-4-23,50.3,41.5,37.2,35.8,32.8,30.1,88,72,48,29.84,29.72,12,1,12,0.00
2012-6-2,66.5,61.5,51.3,55.4,51.9,49.4,94,71,60,30.07,29.98,10,0,10,0.00
2012-6-3,76.2,61.9,46.2,62.6,54.6,46.2,100,80,52,30.11,29.98,4,0,4,0.00
2012-6-4,75.5,65.0,55.3,65.3,60.1,54.8,100,85,66,29.98,29.84,5,0,5,0.00
2012-6-5,73.5,68.6,62.7,62.8,59.5,54.3,94,74,54,29.95,29.87,7,0,7,0.00
2012-6-6,65.5,61.6,57.9,62.0,59.3,57.9,100,93,80,30.11,29.93,11,0,11,0.00
2012-6-7,75.3,65.5,57.6,62.9,60.0,56.5,100,84,55,30.17,30.08,5,0,5,0.00
2012-6-8,78.9,66.5,54.4,63.7,59.3,54.4,100,81,44,30.19,30.08,5,0,5,0.00
2012-6-9,79.8,67.7,56.1,67.8,62.5,56.1,100,85,61,30.20,30.09,7,0,7,0.00
2012-6-10,68.6,63.7,60.0,65.0,61.9,59.9,100,94,82,30.24,30.14,7,0,7,0.00
2012-6-11,75.3,67.1,60.7,71.3,66.2,60.7,100,97,86,30.22,30.07,12,0,12,0.00
2012-6-12,81.9,72.1,65.2,74.9,69.4,65.2,100,92,74,30.08,29.95,5,0,5,0.00
2012-6-13,81.2,71.8,64.5,71.7,67.8,64.5,100,88,64,30.09,30.01,4,0,4,0.00
2012-6-14,78.8,69.3,60.9,68.3,63.7,59.3,100,83,66,30.24,30.08,8,0,8,0.00
2012-6-15,75.0,67.8,61.1,67.6,63.7,59.9,96,87,75,30.31,30.20,10,0,10,0.00
2012-6-16,75.1,65.3,53.6,66.5,61.2,53.6,100,88,72,30.38,30.23,6,0,6,0.00
2012-6-17,77.2,68.5,59.9,68.1,63.2,58.6,98,84,68,30.27,30.09,4,0,4,0.00
2012-6-18,79.8,70.7,61.7,70.6,66.4,61.6,100,87,71,30.19,30.10,5,0,5,0.00
2012-6-19,82.8,70.9,58.8,71.4,65.9,58.8,100,86,67,30.27,30.19,6,0,6,0.00
2012-6-20,84.4,71.9,59.4,74.8,67.6,59.4,100,88,62,30.29,30.16,5,0,5,0.00
2012-6-21,84.0,71.2,63.3,74.8,69.2,63.3,100,94,67,30.19,30.03,5,0,5,0.00
2012-6-22,83.2,71.2,64.5,74.0,68.8,64.5,100,93,70,30.06,29.98,3,0,3,0.00
2012-6-23,83.2,76.6,69.4,75.3,71.6,68.9,99,85,73,30.09,30.03,7,0,7,0.00
2012-6-24,86.1,74.0,63.5,75.0,69.4,63.5,100,87,58,30.10,29.97,6,0,6,0.00
2012-6-25,86.3,75.3,65.9,72.9,68.9,65.9,100,82,60,30.01,29.80,4,0,4,0.00
2012-6-26,74.3,67.8,64.2,66.5,61.8,57.2,94,81,66,29.95,29.84,5,0,5,0.00
2012-6-27,81.1,73.9,58.8,63.5,60.3,56.8,95,64,49,30.13,30.06,4,0,4,0.00
2012-6-28,91.6,72.7,53.9,74.8,62.9,53.6,100,75,44,30.17,30.03,4,0,4,0.00
2012-6-29,92.8,80.0,69.2,76.9,67.4,59.6,92,66,49,30.05,29.91,4,0,4,0.00
2012-6-30,98.3,80.0,64.8,77.8,71.3,64.8,100,78,41,30.02,29.93,6,0,6,0.00
2012-7-1,97.3,79.7,66.6,77.2,70.5,58.5,100,77,33,30.09,29.94,13,0,13,0.00
2012-7-2,73.8,66.9,64.5,70.7,66.2,64.5,100,98,77,30.26,30.06,11,0,11,0.00
2012-7-3,75.6,72.2,70.1,72.5,70.8,69.7,99,95,88,30.10,30.07,1,0,1,0.00
2012-7-4,88.4,74.9,65.0,74.8,70.4,65.0,100,87,62,30.12,30.04,4,0,4,0.00
2012-7-5,90.7,75.7,66.2,77.1,69.9,64.4,100,84,58,30.11,30.00,7,0,7,0.00
2012-7-6,89.9,74.8,64.5,75.3,68.6,63.4,98,82,55,30.11,30.03,4,0,4,0.00
2012-7-7,93.2,77.8,64.7,78.2,71.7,64.7,100,84,48,30.14,30.03,6,0,6,0.00
2012-7-8,90.7,78.1,67.9,78.3,73.5,67.8,100,87,60,30.10,29.95,5,0,5,0.00
2012-7-9,85.5,75.4,67.9,75.1,72.0,67.9,100,90,70,30.04,29.97,7,0,7,0.00
2012-7-10,82.0,72.5,68.1,74.8,70.7,68.1,100,94,75,30.12,30.02,3,0,3,0.00
2012-7-11,73.6,68.1,66.0,71.1,67.8,66.0,100,99,91,30.23,30.09,6,0,6,0.00
2012-7-12,68.7,66.2,63.9,68.1,66.1,63.9,100,100,97,30.26,30.17,5,0,5,0.00
2012-7-13,77.6,69.4,65.5,73.8,69.0,65.5,100,99,85,30.28,30.18,12,0,12,0.00
2012-7-14,83.0,73.3,68.4,73.9,70.9,68.4,100,93,70,30.30,30.19,9,0,9,0.00
2012-7-15,83.3,71.5,65.6,75.6,70.4,65.6,100,97,75,30.30,30.17,6,0,6,0.73
2012-7-16,85.9,73.8,64.7,76.1,70.4,64.7,100,90,68,30.23,30.06,8,0,8,0.00
2012-7-17,85.0,72.9,67.1,76.9,70.9,67.1,100,94,69,30.11,30.03,9,0,9,0.02
2012-7-18,86.0,74.2,65.8,76.7,71.0,65.8,100,91,66,30.12,29.99,7,0,7,0.00
2012-7-19,86.8,75.4,67.0,77.7,72.3,67.0,100,91,70,30.14,30.03,4,0,4,0.30
2012-7-20,77.0,71.0,67.2,73.7,70.2,67.2,100,98,83,30.09,30.00,2,0,2,0.25
2012-7-21,82.3,72.2,67.2,76.1,71.0,67.2,100,96,79,30.19,30.05,7,0,7,0.14
2012-7-22,88.0,75.0,65.2,76.6,71.3,65.2,100,90,64,30.28,30.17,3,0,3,0.00
2012-7-23,86.1,73.1,67.0,77.4,71.0,67.0,100,94,71,30.31,30.19,3,0,3,0.00
2012-7-31,72.3,68.6,65.9,70.4,68.2,65.9,100,99,93,30.08,30.00,5,0,5,1.44
2012-8-1,85.3,72.4,62.7,75.2,69.1,62.6,100,90,66,30.07,29.94,3,0,3,0.00
2012-8-2,87.8,74.0,65.1,76.5,71.0,65.1,100,91,63,30.03,29.95,7,0,7,0.00
2012-8-3,83.1,72.1,64.7,77.4,70.3,64.7,100,95,80,30.14,29.98,11,0,11,0.00
2012-8-4,78.0,70.7,66.5,74.3,69.9,66.5,100,98,86,30.28,30.14,6,0,6,0.56
2012-8-5,83.4,74.0,65.4,75.5,70.9,65.4,100,91,72,30.31,30.18,12,0,12,0.00
2012-8-6,81.8,71.3,67.4,74.6,70.3,67.4,100,97,77,30.22,30.11,1,0,0,6.40
2012-8-7,78.1,71.6,68.4,75.0,71.0,68.4,100,98,89,30.14,30.05,0,0,0,0.00
2012-8-8,83.8,73.7,68.0,76.2,71.5,68.0,100,93,71,30.11,30.04,9,0,9,0.01
2012-8-9,82.3,68.9,65.2,75.9,68.2,65.2,100,98,76,30.09,29.94,11,0,11,0.31
2012-8-10,78.5,70.3,63.5,74.3,68.7,63.5,100,95,79,29.97,29.88,4,0,4,0.01
2012-8-11,76.3,69.4,65.1,70.3,66.5,61.1,100,91,78,30.07,29.94,3,0,3,0.00
2012-8-12,80.8,68.5,59.1,67.8,62.5,58.2,99,83,52,30.14,30.06,3,0,3,0.00
2012-8-13,81.7,67.7,56.9,69.7,63.6,56.9,100,88,61,30.17,30.04,9,0,9,0.00
2012-8-14,84.3,69.9,60.7,73.5,67.0,60.7,100,91,67,30.09,29.94,7,0,7,0.00
2012-8-15,78.0,67.7,62.0,72.1,66.1,61.9,100,95,74,30.11,30.00,4,0,4,0.25
2012-8-16,82.0,69.0,57.9,68.6,63.8,57.8,100,86,54,30.17,30.05,6,0,6,0.00
2012-8-17,73.6,67.1,59.5,69.5,65.6,59.5,100,95,80,30.12,29.96,4,0,4,0.02
2012-8-18,77.5,67.8,63.9,70.3,66.6,63.9,100,96,76,30.05,29.94,5,0,5,0.54
2012-8-19,74.6,67.0,61.1,69.6,65.7,61.1,100,96,76,30.00,29.92,3,0,3,0.17
2012-8-20,76.9,66.2,60.5,65.6,63.1,60.4,100,91,64,30.09,29.96,3,0,3,0.01
2012-8-21,78.2,63.4,53.8,67.1,60.9,53.8,100,93,64,30.20,30.09,5,0,5,0.10
2012-8-22,77.2,66.1,56.4,69.3,63.3,56.4,100,92,67,30.24,30.16,4,0,4,0.00
2012-8-23,79.5,68.2,60.6,70.0,65.3,60.6,100,91,68,30.26,30.17,9,0,9,0.00
2012-8-24,77.0,66.6,60.9,70.3,64.9,60.9,100,95,75,30.26,30.18,7,0,7,0.56
2012-8-25,80.5,66.8,58.8,71.8,64.6,58.8,100,93,74,30.28,30.18,1,0,0,0.00
2012-8-26,82.9,69.8,60.6,72.9,66.3,60.6,100,90,65,30.28,30.17,4,0,4,0.00
2012-8-27,82.8,70.2,60.5,72.6,66.6,60.5,100,89,64,30.26,30.11,7,0,7,0.00
2012-8-28,80.1,69.4,60.6,73.4,67.0,60.6,100,93,74,30.15,30.04,4,0,4,0.00
2012-8-29,82.5,71.3,66.1,75.3,70.0,66.1,100,96,78,30.10,30.03,9,0,9,0.18
2012-8-30,79.8,71.7,65.5,75.7,70.6,65.5,100,96,85,30.25,30.08,6,0,6,0.00
2012-8-31,86.9,74.8,67.5,76.9,71.6,67.5,100,91,68,30.33,30.20,4,0,4,0.00
2012-9-1,86.5,74.2,67.9,76.0,71.8,67.8,100,93,64,30.26,30.14,6,0,6,0.13
2012-9-2,82.3,72.9,68.1,75.8,71.6,68.1,100,96,79,30.17,30.01,6,0,6,0.03
2012-9-3,77.8,71.9,66.5,74.8,71.1,66.5,100,98,88,30.08,29.99,9,0,9,0.52
2012-9-4,72.6,69.8,67.4,72.6,69.8,67.4,100,100,99,30.05,29.99,5,0,5,0.22
2012-9-5,79.2,72.3,67.0,75.8,71.1,67.0,100,96,84,30.04,29.94,5,0,5,0.05
2012-9-6,83.0,72.8,67.2,74.5,70.2,67.2,100,92,72,30.05,29.96,6,0,6,0.00
2012-9-7,84.3,72.9,63.9,74.4,69.5,63.9,100,90,65,30.08,29.94,6,0,6,0.00
2012-9-8,81.0,68.5,60.0,73.9,66.7,60.0,100,95,76,29.97,29.81,6,0,6,0.03
2012-9-9,72.0,61.6,52.2,60.0,56.4,51.7,100,84,62,30.17,29.96,5,0,5,0.00
2012-9-10,76.4,61.3,48.6,60.2,55.2,48.6,100,83,51,30.28,30.16,5,0,5,0.00
2012-9-11,75.7,63.3,55.1,64.0,59.3,55.1,100,88,60,30.40,30.27,10,0,10,0.00
2012-9-12,76.3,63.8,54.6,66.2,59.9,54.6,100,89,63,30.45,30.34,9,0,9,0.00
2012-9-13,72.5,62.7,53.3,63.0,58.5,53.3,100,87,67,30.46,30.35,5,0,5,0.00
2012-9-14,76.7,64.0,55.0,65.2,59.9,54.9,100,88,63,30.39,30.27,6,0,6,0.00
2012-9-15,79.6,64.1,53.8,66.0,59.5,53.8,100,87,56,30.33,30.20,4,0,4,0.00
2012-9-16,71.0,65.6,62.3,68.8,65.2,62.3,100,99,92,30.22,30.13,4,0,4,0.07
2012-9-17,69.5,65.3,61.8,68.7,65.2,61.8,100,100,96,30.18,29.90,13,0,13,0.55
2012-9-18,67.4,64.5,56.8,67.4,64.5,55.6,100,100,96,29.99,29.78,15,0,15,2.88
2012-9-19,70.4,60.2,51.4,63.2,56.9,50.6,99,89,71,30.22,29.99,6,0,6,0.00
2012-9-20,71.6,63.3,57.3,64.0,60.4,57.3,100,91,74,30.25,30.13,9,0,9,0.00
2012-9-21,76.8,63.0,53.5,67.0,60.2,53.5,100,91,63,30.20,30.07,5,0,5,0.00
2012-9-22,79.5,67.2,56.5,67.1,61.0,51.4,100,82,55,30.15,30.00,6,0,6,0.00
2012-9-23,70.5,59.3,51.5,55.2,49.0,42.3,91,70,44,30.28,30.13,9,0,9,0.00
2012-9-24,68.2,54.6,43.7,53.5,46.2,40.4,95,75,53,30.35,30.25,8,0,8,0.00
2012-9-25,73.6,57.2,42.0,63.9,53.8,41.9,100,89,70,30.36,30.29,6,0,6,0.00
2012-9-26,79.5,63.9,51.3,68.9,60.3,51.3,100,89,63,30.33,30.23,7,0,7,0.00
2012-9-27,77.4,64.2,54.3,67.3,60.7,54.3,100,90,63,30.32,30.20,4,0,4,0.00
2012-9-28,77.5,64.2,54.1,68.9,61.9,54.1,100,93,72,30.25,30.09,4,0,4,0.00
2012-9-29,68.8,62.1,56.7,66.9,61.9,56.7,100,99,87,30.14,29.95,6,0,6,0.40
2012-9-30,68.3,59.6,53.8,61.9,57.6,53.8,100,94,77,30.04,29.94,6,0,6,0.00
2012-10-1,61.2,58.7,56.9,61.0,58.6,56.8,100,100,98,29.97,29.83,11,0,11,0.86
2012-10-2,71.7,65.2,58.6,68.3,63.5,58.6,100,95,77,30.06,29.83,13,0,13,1.51
2012-10-3,73.0,64.0,58.8,64.6,61.2,58.8,100,91,65,30.29,30.06,6,0,6,0.00
2012-10-4,71.1,62.9,55.2,61.7,59.1,54.6,100,88,68,30.36,30.28,7,0,7,0.00
2012-10-5,73.8,59.9,47.8,62.8,56.1,47.8,100,89,64,30.35,30.13,7,0,7,0.00
2012-10-6,71.3,58.7,50.1,64.6,56.7,50.1,100,93,77,30.16,30.02,4,0,4,0.00
2012-10-7,56.9,50.9,44.5,56.9,50.3,43.0,100,98,93,30.25,30.05,7,0,7,0.23
2012-10-8,48.7,46.3,45.0,47.3,45.2,42.4,100,96,88,30.32,30.22,3,0,3,0.00
2012-10-9,57.5,49.6,45.2,51.4,47.6,44.9,100,93,79,30.29,30.18,7,0,7,0.00
2012-10-10,62.9,52.6,42.7,55.2,49.8,42.4,100,91,75,30.27,30.17,10,0,10,0.00
2012-10-11,65.0,52.8,42.2,54.4,48.4,41.8,100,86,67,30.40,30.27,7,0,7,0.00
2012-10-12,66.8,54.2,43.3,59.4,51.5,43.3,100,91,75,30.44,30.32,6,0,6,0.00
2012-10-13,61.4,52.8,47.1,51.8,48.9,46.1,100,88,68,30.55,30.41,10,0,10,0.00
2012-10-14,64.8,56.2,45.5,62.4,54.8,45.1,100,95,89,30.45,30.13,6,0,6,0.00
2012-10-15,66.8,60.2,52.4,62.4,55.4,45.9,100,85,55,30.13,29.90,9,0,9,0.99
2012-10-16,64.3,53.8,44.5,49.2,45.8,41.6,97,76,46,30.09,29.98,6,0,6,0.00
2012-10-17,67.3,51.8,37.9,54.6,46.3,37.9,100,84,55,30.13,29.99,12,0,12,0.00
2012-10-18,64.2,55.5,46.4,60.4,54.2,45.6,100,95,86,30.01,29.88,5,0,5,0.01
2012-10-19,65.3,52.6,39.6,53.0,44.0,39.4,100,76,44,29.92,29.80,3,0,10,0.00
2012-10-20,61.5,49.4,39.6,49.2,43.9,38.8,100,83,61,30.12,29.90,7,0,7,0.00
2012-10-21,66.1,52.0,41.4,52.1,45.4,40.9,100,80,50,30.29,30.12,6,0,6,0.00
2012-10-22,74.1,54.8,38.7,57.4,48.5,38.4,100,82,51,30.39,30.25,7,0,7,0.00
2012-10-23,75.3,57.2,42.6,59.5,51.7,42.6,100,85,53,30.34,30.19,5,0,5,0.00
2012-10-24,77.0,58.0,43.0,61.7,51.9,43.0,100,83,52,30.34,30.19,6,0,6,0.00
2012-10-25,72.4,56.7,42.0,61.5,52.5,41.7,100,87,65,30.28,30.19,13,0,13,0.00
2012-10-26,73.8,61.7,52.9,64.0,57.4,52.3,100,87,63,30.22,30.05,7,0,7,0.00
2012-10-27,65.3,55.3,50.0,59.0,53.2,48.1,100,93,80,30.07,29.88,9,0,9,0.00
2012-10-28,51.5,45.9,39.2,48.1,43.8,36.3,100,92,82,29.95,29.86,13,1,13,0.01
2012-10-29,41.6,38.7,36.7,36.8,34.9,32.0,93,86,79,29.93,29.74,15,2,15,0.00
2012-10-30,40.0,36.8,34.2,35.2,33.2,30.5,96,87,74,29.85,29.62,10,1,10,0.00
2012-10-31,51.1,41.9,36.3,39.2,34.2,28.0,92,75,55,29.96,29.83,12,1,12,0.00
2012-11-1,52.4,43.0,37.4,35.0,30.6,25.8,82,62,41,30.05,29.94,11,1,11,0.00
2012-11-2,63.0,45.6,31.6,47.5,36.4,26.0,91,72,55,30.08,29.99,13,1,13,0.00
2012-11-3,67.7,50.4,38.0,51.3,39.5,32.7,90,68,40,30.23,30.10,1,0,1,0.00
2012-11-4,63.1,50.8,43.5,55.5,46.5,40.1,99,85,70,30.12,30.04,11,0,11,0.00
2012-11-5,54.7,44.5,37.2,40.1,37.1,34.3,100,77,49,30.20,30.10,6,0,6,0.00
2012-11-6,43.7,39.2,36.3,38.7,36.7,33.8,100,91,69,30.21,30.06,6,0,6,0.12
2012-11-7,43.9,39.8,36.9,42.4,39.0,35.9,100,97,92,30.17,30.00,9,0,9,0.16
2012-11-8,52.2,43.1,34.8,38.7,36.2,31.8,95,78,47,30.33,30.16,14,1,14,0.00
2012-11-9,61.9,43.8,29.3,41.7,35.2,28.7,99,75,44,30.45,30.33,7,0,7,0.00
2012-11-10,69.1,47.6,29.5,44.2,36.2,28.9,100,70,31,30.52,30.41,7,0,7,0.00
2012-11-11,65.1,50.5,32.8,54.6,44.1,31.8,100,80,60,30.59,30.48,15,1,15,0.00
2012-11-12,62.3,59.5,57.2,59.5,57.5,54.9,100,93,87,30.48,30.25,16,2,16,0.01
2012-11-13,47.9,40.7,31.6,40.5,34.6,28.9,100,80,60,30.53,30.34,13,1,13,0.00
2012-11-14,48.2,36.1,24.7,36.0,30.9,24.2,100,83,58,30.61,30.47,7,0,7,0.00
2012-11-15,55.7,40.7,32.1,43.2,36.5,30.7,100,87,59,30.48,30.33,9,0,9,0.00
2012-11-16,56.7,40.4,27.1,40.1,33.0,27.0,100,78,44,30.53,30.39,5,0,5,0.00
2012-11-17,55.8,39.4,26.8,36.2,28.7,25.4,100,71,32,30.62,30.51,10,0,10,0.00
2012-11-18,54.4,40.1,28.2,46.3,35.7,24.5,100,85,73,30.63,30.50,5,0,5,0.00
2012-11-19,59.3,45.0,32.4,52.4,42.9,32.1,100,93,76,30.52,30.33,4,0,4,0.00
2012-11-20,60.0,45.7,36.2,46.1,39.3,34.8,100,81,47,30.34,30.19,11,0,11,0.00
2012-11-21,61.4,47.0,33.2,46.2,39.1,32.3,99,76,52,30.32,30.23,9,0,9,0.00
2012-11-22,62.5,44.7,29.9,44.4,36.7,29.3,100,77,45,30.41,30.28,6,0,6,0.00
2012-11-23,62.5,43.8,28.8,51.1,37.9,28.4,100,82,54,30.32,30.09,7,0,13,0.00
2012-11-24,41.6,35.3,26.1,33.9,26.6,21.5,83,71,55,30.28,30.12,13,1,13,0.00
2012-11-25,51.9,34.7,21.4,29.0,23.9,19.5,95,68,36,30.33,30.18,4,0,4,0.00
2012-11-26,61.9,43.8,25.5,40.1,31.0,22.4,91,64,41,30.38,30.26,6,0,6,0.00
2012-11-27,50.7,45.7,41.2,46.8,41.2,34.2,96,85,53,30.34,30.21,10,0,10,0.00
2012-11-28,49.0,40.2,33.3,39.3,30.8,23.0,95,72,37,30.52,30.33,11,0,11,0.00
2012-11-29,54.9,37.6,22.9,42.8,32.1,21.4,97,82,59,30.62,30.47,8,0,8,0.00
2012-11-30,58.2,40.6,26.0,45.2,35.9,25.5,100,85,58,30.54,30.40,6,0,6,0.00
2012-12-1,60.5,43.4,29.1,49.9,39.5,29.0,100,88,65,30.56,30.43,11,0,11,0.00
2012-12-2,64.6,50.9,38.1,54.2,46.6,37.3,100,87,64,30.52,30.35,11,0,11,0.00
2012-12-3,68.3,51.7,38.2,55.6,47.0,38.1,100,86,63,30.45,30.33,9,0,9,0.00
2012-12-4,67.4,52.8,37.3,54.7,47.7,37.3,100,84,62,30.44,30.30,11,0,11,0.00
2012-12-5,57.5,53.4,43.6,54.5,48.9,39.8,93,85,73,30.31,30.23,9,0,11,0.00
2012-12-6,51.7,46.9,43.8,43.7,40.0,33.2,93,77,59,30.38,30.27,6,0,6,0.00
2012-12-7,59.6,47.5,40.8,55.1,44.8,37.3,100,91,78,30.31,30.10,6,0,6,0.01
2012-12-8,65.6,52.6,42.3,56.9,50.5,42.2,100,94,70,30.17,30.08,6,0,6,0.00
2012-12-9,64.5,56.2,49.1,59.9,54.3,49.1,100,94,80,30.20,30.07,8,0,8,0.00
2012-12-10,58.8,55.8,45.8,58.4,55.4,44.5,100,99,93,30.07,29.75,6,0,6,0.00
2012-12-11,45.7,38.0,33.5,44.6,35.1,31.0,96,89,80,30.30,29.85,12,1,12,0.00
2012-12-12,42.2,37.6,32.7,37.3,34.1,31.1,98,87,80,30.44,30.30,6,0,6,0.00
2012-12-13,51.2,40.7,28.5,35.0,30.7,25.1,88,69,46,30.51,30.40,7,0,7,0.00
2012-12-14,56.3,38.2,24.1,40.0,30.9,22.7,100,77,44,30.54,30.38,7,0,7,0.00
2012-12-15,57.1,43.6,33.1,42.2,36.9,30.3,94,78,54,30.40,30.19,10,0,10,0.00
2012-12-16,51.9,48.7,43.7,51.9,47.9,41.1,100,97,80,30.19,30.00,5,0,5,0.00
2012-12-17,52.6,49.4,46.6,52.6,49.4,46.6,100,100,99,30.00,29.75,10,0,10,0.00
2012-12-18,49.2,43.2,30.3,47.0,38.0,29.0,100,83,56,30.10,29.79,13,1,13,0.00
2012-12-19,59.6,41.9,28.1,47.1,37.4,27.6,100,85,60,30.25,30.09,5,0,5,0.00
2012-12-20,48.8,41.3,35.0,44.9,40.0,31.1,100,95,75,30.25,29.71,10,1,10,0.00
2012-12-21,37.3,34.1,31.2,31.4,25.5,21.5,81,71,61,30.07,29.79,16,2,16,0.00
2012-12-22,42.9,34.0,25.6,21.3,19.3,17.2,70,56,41,30.34,30.25,2,1,0,0.00
2012-12-23,49.1,36.4,24.9,33.8,25.6,17.0,83,66,45,30.33,30.18,5,0,5,0.00
2012-12-24,49.8,42.9,37.1,49.0,42.4,32.3,100,98,82,30.19,29.96,6,0,6,0.00
2012-12-25,49.6,43.4,36.1,46.5,42.3,36.1,100,96,79,30.20,30.04,10,0,10,0.00
2012-12-26,45.2,40.9,31.6,45.2,39.8,28.6,100,96,82,30.04,29.56,16,1,16,0.00
2012-12-27,34.2,30.6,27.9,31.0,28.3,26.9,96,91,83,30.25,29.89,17,2,17,0.00
2012-12-28,44.6,33.6,24.8,37.0,30.5,24.4,100,89,72,30.31,30.10,10,0,10,0.00
2012-12-29,42.9,34.3,28.2,39.2,32.4,23.8,100,93,77,30.23,29.90,16,1,16,0.00
2012-12-30,36.6,29.4,24.6,25.2,23.1,21.0,90,78,56,30.59,30.22,26,1,26,0.00
2012-12-31,49.0,35.5,23.8,30.6,26.1,21.8,95,71,40,30.55,30.26,5,0,5,0.00
2013-1-1,43.5,40.1,37.6,43.5,36.7,28.2,100,88,67,30.26,30.09,5,0,5,0.00